Regional Weather Roundup
Issued by NWS

Home | Current Version | Previous Version | Graphics & Text | Print | Product List | Glossary Off
Versions: 1 2 3 4 5 6 7 8 9 10 11 12 13 14 15 16 17 18 19 20 21 22 23 24 25 26 27 28 29 30 31 32 33 34 35 36 37 38 39 40 41 42 43 44 45 46 47 48 49 50

708
ASUS43 KMPX 241010
RWRMN
WEATHER ROUNDUP FOR MINNESOTA
NATIONAL WEATHER SERVICE TWIN CITIES/CHANHASSEN MN
500 AM CDT SUN JUL 24 2016


NOTE: "FAIR" INDICATES FEW OR NO CLOUDS BELOW 12,000 FEET WITH NO
SIGNIFICANT WEATHER AND/OR OBSTRUCTIONS TO VISIBILITY. N/A MEANS
CURRENT SKY AND/OR WEATHER CONDITIONS ARE NOT AVAILABLE.

MNZ060>063-068>070-241100-
   Twin Cities Metro

CITY           SKY/WX    TMP DP  RH WIND       PRES   REMARKS
TWIN CITIES    CLOUDY    75  70  84 NW7       29.77R
ST PAUL        MOCLDY    75  73  93 NW7       29.77R
CRYSTAL        CLEAR     72  68  87 CALM      29.76R
BLAINE         PTCLDY    73  73 100 NE7       29.77S
LAKEVILLE      CLOUDY    73  73 100 NW10      29.78R
EDEN PRAIRIE   CLOUDY    75  68  78 NW7       29.76S
LAKEVILLE      CLOUDY    73  73 100 NW10      29.78R
SOUTH ST PAUL  MOCLDY    75  74  95 CALM      29.76S
LAKE ELMO      CLOUDY    73  73 100 NE3       29.79R
$$
MNZ001>005-007-008-013>017-022>024-027-028-241100-
   Northwest Minnesota

CITY           SKY/WX    TMP DP  RH WIND       PRES   REMARKS
BEMIDJI        CLEAR     66  64  94 W8        29.76F
HALLOCK        CLEAR     63  61  94 NW8       29.75S
ROSEAU         PTCLDY    64  57  77 W9        29.73R
WARROAD        CLEAR     63  59  88 W8        29.72S
THIEF RVR FALL CLEAR     62  60  93 W10       29.78S
CROOKSTON      CLEAR     63  61  94 W5        29.79R
FOSSTON        CLEAR     63  59  88 W8        29.79S
DETROIT LAKES  CLEAR     64  61  88 NW12      29.83R
MOORHEAD       CLEAR     64  59  82 W15       29.83R
PARK RAPIDS    CLEAR     67  64  90 W10       29.79S
MAHNOMEN       FAIR      62  60  93 W10       29.80S
$$
MNZ006-009>011-018-025>026-241100-
   North Central Minnesota

CITY           SKY/WX    TMP DP  RH WIND       PRES   REMARKS
BAUDETTE       CLEAR     66  63  90 W8        29.70F
FLAG ISLAND    CLEAR     64  61  88 W14       29.67S
INTL FALLS     PTCLDY    66  65  96 SW6       29.69S
WASKISH        CLEAR     70  64  83 W17G23    29.73S
BIG FORK       CLEAR     68  66  94 SW5       29.73F
LONGVILLE      CLEAR     66  64  94 W3        29.77R
GRAND RAPIDS   PTCLDY    68  66  93 SW5       29.77S
ORR            CLOUDY    66  64  94 CALM      29.70F
COOK           CLOUDY    66  66 100 CALM      29.73F
WALKER         FAIR      65  64  97 W7        29.77S
$$
MNZ012-019>021-037-241100-
   Northeast Minnesota

CITY           SKY/WX    TMP DP  RH WIND       PRES   REMARKS
DULUTH         CLOUDY    66  66 100 CALM      29.74F FOG
ELY            CLOUDY    66  64  94 W6        29.73F
HIBBING        CLOUDY    63  63 100 S3        29.74F
EVELETH        CLOUDY    65  65  98 CALM      29.75F
DULUTH HARBOR  CLOUDY    63  61  94 CALM      29.72F
TWO HARBORS    CLOUDY    66  61  82 CALM      29.72S HAZE
SILVER BAY     CLOUDY    64  64 100 CALM      29.71F
GRAND MARAIS     N/A     61  58  90 NE3       29.72F
G MARAIS ARPRT CLOUDY    63  59  88 CALM      29.77F
$$
MNZ029>031-032-039>041-046>048-054>057-064-241100-
   West Central Minnesota

CITY           SKY/WX    TMP DP  RH WIND       PRES   REMARKS
FERGUS FALLS   CLEAR     63  63 100 NW7       29.85R
WHEATON        CLEAR     68  64  88 W8        29.87R
MORRIS         CLEAR     66  64  94 W9        29.84R
ALEXANDRIA     CLEAR     69  65  86 NW10      29.84R
ELBOW LAKE     FAIR      65  63  93 NW9       29.85R
WADENA         CLEAR     66  66 100 W7        29.80S
GLENWOOD       CLEAR     66  66 100 W9        29.84S
APPLETON       CLEAR     68  64  88 W6        29.85R
BENSON         CLEAR     66  63  88 NW5       29.84S
ORTONVILLE     CLEAR     70  63  78 NW10      29.86R
MADISON        CLEAR     64  63  94 W7        29.86R
WILLMAR        FAIR      66  66 100 W7        29.84S
$$
MNZ033>034-036-042>043-049>051-058-059-241100-
   Central Minnesota

CITY           SKY/WX    TMP DP  RH WIND       PRES   REMARKS
ST CLOUD       CLEAR     72  71  97 NW12      29.78R
SAUK CENTRE    FAIR      67  66  97 W3        29.82S
PAYNESVILLE    PTCLDY    67  68 100 W6        29.82S
AITKIN         CLEAR     68  63  83 CALM      29.75S
PINE RIVER     CLEAR     66  66 100 CALM      29.81S
BRAINERD       CLEAR     68  67  96 W5        29.78S
STAPLES        CLEAR     66  64  94 W5        29.80R
LONG PRAIRIE   FAIR      68  64  88 SW3       29.82S
LITTLE FALLS   PTCLDY    70  68  94 W6        29.79S
LITCHFIELD     CLEAR     72  72 100 NW9       29.81S
BUFFALO        PTCLDY    71  67  87 W7        29.79S
MAPLE LAKE     CLEAR     73  70  92 W6        29.80R
HUTCHINSON     CLEAR     71  69  94 W8        29.81S
$$
MNZ037-044-045-052-053-241100-
   East Central Minnesota

CITY           SKY/WX    TMP DP  RH WIND       PRES   REMARKS
PRINCETON      CLOUDY    72  70  94 CALM      29.78R
MORA           FOG       64  64 100 SW5       29.78R VSB 1
CAMBRIDGE      CLOUDY    70  63  78 S3        29.76R
RUSH CITY      CLOUDY    66  65  95 S5        29.77R
MOOSE LAKE     MOCLDY    63  61  94 CALM      29.73F
HINCKLEY       PTSUNNY   64  64 100 SW3       29.76R
CLOQUET        FOG       64  63  94 CALM      29.75F VSB 3/4
MCGREGOR       PTCLDY    63  61  94 CALM      29.76F
$$
MNZ071>073-080-081-089-090-097-098-241100-
   Southwest Minnesota

CITY           SKY/WX    TMP DP  RH WIND       PRES   REMARKS
MONTEVIDEO     CLEAR     70  68  94 NW7       29.86S
GRANITE FALLS  CLEAR     70  69  98 W6        29.86S
CANBY          CLEAR     69  63  82 NW8       29.88S
MARSHALL       CLEAR     67  65  93 W8        29.87R
REDWOOD FALLS  CLEAR     71  68  90 NW8       29.83R
OLIVIA         CLEAR     70  66  88 NW6       29.83S
PIPESTONE      CLEAR     72  66  83 NW7       29.91S
WINDOM         CLEAR     72  66  83 NW10      29.86R
WORTHINGTON    CLEAR     70  66  87 NW10      29.89S
JACKSON        CLEAR     73  66  78 NW12G17   29.87R
TRACY          CLEAR     70  67  92 W6        29.87S
SLAYTON        CLEAR     66  56  69 NW8       29.89F
$$
MNZ065>067-074>077-082>085-091>093-241100-
   South Central Minnesota

CITY           SKY/WX    TMP DP  RH WIND       PRES   REMARKS
MANKATO        CLOUDY    77  73  88 W10G17    29.79R
NEW ULM        CLEAR     72  70  94 NW15      29.82R
ST JAMES       CLEAR     70  64  83 W14G21    29.83R
FAIRMONT       CLEAR     75  50  41 NW14      29.82R
GLENCOE        PTCLDY    71  69  94 W5        29.79S
FARIBAULT      PTCLDY    75  75 100 S5        29.77F
OWATONNA       CLOUDY    77  73  88 SW5       29.78S
WASECA         CLOUDY    77  75  94 SW8       29.79F
ALBERT LEA     MOCLDY    77  75  94 W3        29.79F
$$
MNZ078>079-086>088-094>096-241100-
   Southeast Minnesota

CITY           SKY/WX    TMP DP  RH WIND       PRES   REMARKS
ROCHESTER      CLEAR     74  74 100 SW8       29.79F
RED WING       CLOUDY    75  73  94 CALM      29.75R
STANTON        PTCLDY    77  73  88 SW5       29.74S
DODGE CENTER   PTCLDY    73  73 100 SW9       29.79S FOG
WINONA         PTCLDY    73  72  94 CALM      29.76F
AUSTIN         CLOUDY    73  72  94 S6        29.80S FOG
PRESTON        PTCLDY    73  71  94 SW12      29.80F
$$
ABBREVIATIONS USED IN REMARKS
   TC - TEMPERATURES IN CELSIUS
  WCI - WIND CHILL INDEX
   HX - HEAT INDEX
  VSB - VISIBILITY
$$




USA.gov is the U.S. government's official web portal to all federal, state and local government web resources and services.